Location: Nashville
(36.1660°N, 86.7840°W)
Time: 04:36:46
(UTC-06:00)

Explorer 7 - Visible Passes

Search period start: 19 January 2022 00:00
Search period end: 29 January 2022 00:00
Orbit: 483 x 674 km, 50.3° (Epoch: 19 January)

Date Brightness Start Highest point End Pass type
(mag) Time Alt. Az. Time Alt. Az. Time Alt. Az.
19 Jan 7.2 17:42:26 10° NW 17:47:14 64° NE 17:52:04 10° ESE visible
19 Jan 9.4 19:23:45 10° W 19:27:27 22° SW 19:30:04 15° SSW visible
20 Jan 7.3 17:46:17 10° NW 17:51:06 84° SW 17:55:59 10° SE visible
20 Jan 10.1 19:28:52 10° W 19:31:04 13° SW 19:33:17 10° SSW visible
21 Jan 8.1 17:50:13 10° WNW 17:54:55 52° SW 17:59:38 10° SSE visible
22 Jan 9.1 17:54:21 10° WNW 17:58:38 32° SW 18:02:58 10° SSE visible
23 Jan 10.0 17:58:49 10° W 18:02:18 20° SW 18:05:49 10° S visible
24 Jan 10.5 18:04:13 10° WSW 18:05:55 12° SW 18:07:38 10° SSW visible
